Weather History for Meriden, CT

Change the Weather History Date:

Tuesday, February 12, 2013

  Actual Average (KHVN) Record (KHVN)
Temperature  
Mean Temperature 36 °F -  
Max Temperature 45 °F 37 °F 24 °F (2014)
Min Temperature 28 °F 24 °F 8 °F (2014)
Degree Days  
Heating Degree Days 28    
Moisture  
Dew Point 29 °F    
Average Humidity 78    
Maximum Humidity 100    
Minimum Humidity 44    
Precipitation  
Precipitation 0.00 in - - ()
Sea Level Pressure  
Sea Level Pressure 29.77 in    
Wind  
Wind Speed 3 mph (WNW)    
Max Wind Speed 14 mph    
Max Gust Speed 25 mph    
Visibility 6 miles    
Events Rain    
Averages and records for this station are not official NWS values.
T = Trace of Precipitation, MM = Missing Value Source: NWS Daily Summary

Daily Weather History Graph

Daily Weather History Graph

Search for Another Location

Airport:

Trip Planner

Search our weather history database for the weather conditions in past years. The results will help you decide how hot, cold, wet, or windy it might be!

Date:

Astronomy

Feb. 12, 2013 Rise Set
Actual Time 6:50 AM EST 5:21 PM EST
Civil Twilight 6:21 AM EST 5:50 PM EST
Nautical Twilight 5:48 AM EST 6:22 PM EST
Astronomical Twilight 5:16 AM EST 6:54 PM EST
Moon 7:43 AM EST (2/12) 8:22 PM EST (2/12)
Length of Visible Light 11h 28m
Length of Day
10h 31m
Waxing Crescent, 7% of the Moon is Illuminated
Feb 12
Waxing Crescent
Feb 17
First Quarter
Feb 25
Full
Mar 4
Last Quarter
Mar 11
New

Hourly Weather History & Observations

Time (EST) Temp. Windchill Dew Point Humidity Pressure Visibility Wind Dir Wind Speed Gust Speed Precip Events Conditions
12:14 AM 39.2 °F 35.0 °F 37.4 °F 93% 29.68 in 10.0 mi NNW 5.8 mph - 0.00 in Rain Light Rain
12:51 AM 35.6 °F - 35.6 °F 100% 29.68 in 4.0 mi Calm Calm - 0.00 in   Scattered Clouds
12:53 AM 37.0 °F - 36.0 °F 96% 29.68 in 4.0 mi Calm Calm - 0.00 in   Scattered Clouds
1:28 AM 35.6 °F - 33.8 °F 93% 29.69 in 1.5 mi Calm Calm - N/A   Partly Cloudy
1:31 AM 35.6 °F 32.8 °F 33.8 °F 93% 29.69 in 0.8 mi NNE 3.5 mph - N/A   Mist
1:39 AM 33.8 °F - 33.8 °F 100% 29.69 in 0.8 mi Calm Calm - N/A   Mostly Cloudy
1:48 AM 33.8 °F - 33.8 °F 100% 29.69 in 1.5 mi Calm Calm - N/A   Mostly Cloudy
1:53 AM 34.0 °F - 33.1 °F 96% 29.70 in 1.2 mi Calm Calm - N/A   Overcast
2:23 AM 33.8 °F - 33.8 °F 100% 29.70 in 2.5 mi Calm Calm - N/A   Overcast
2:37 AM 33.8 °F - 33.8 °F 100% 29.70 in 1.8 mi Calm Calm - N/A   Overcast
2:53 AM 33.1 °F - 32.0 °F 96% 29.71 in 2.0 mi Calm Calm - N/A   Overcast
3:16 AM 33.8 °F - 32.0 °F 93% 29.71 in 1.8 mi Calm Calm - N/A   Overcast
3:23 AM 33.8 °F - 32.0 °F 93% 29.71 in 2.5 mi Calm Calm - N/A   Overcast
3:35 AM 33.8 °F - 32.0 °F 93% 29.71 in 1.5 mi Calm Calm - N/A   Overcast
3:53 AM 33.1 °F - 32.0 °F 96% 29.72 in 1.0 mi Calm Calm - N/A   Overcast
4:03 AM 33.8 °F - 32.0 °F 93% 29.71 in 0.8 mi Calm Calm - N/A   Overcast
4:10 AM 33.8 °F - 32.0 °F 93% 29.71 in 1.2 mi Calm Calm - N/A   Overcast
4:25 AM 32.0 °F - 32.0 °F 100% 29.72 in 0.8 mi Calm Calm - N/A   Overcast
4:32 AM 33.8 °F - 32.0 °F 93% 29.72 in 1.2 mi Calm Calm - N/A   Overcast
4:53 AM 33.1 °F - 32.0 °F 96% 29.73 in 2.0 mi Calm Calm - N/A   Overcast
5:22 AM 33.8 °F 29.6 °F 32.0 °F 93% 29.73 in 4.0 mi Variable 4.6 mph - N/A   Overcast
5:53 AM 37.0 °F 31.6 °F 32.0 °F 82% 29.74 in 10.0 mi West 6.9 mph - N/A   Overcast
6:53 AM 39.0 °F - 28.9 °F 67% 29.75 in 10.0 mi Calm Calm - N/A   Overcast
7:53 AM 39.0 °F 35.7 °F 28.0 °F 65% 29.78 in 10.0 mi West 4.6 mph - N/A   Overcast
8:53 AM 41.0 °F 35.8 °F 26.1 °F 55% 29.79 in 10.0 mi West 8.1 mph 16.1 mph N/A   Overcast
9:53 AM 42.1 °F 36.6 °F 26.1 °F 53% 29.80 in 10.0 mi West 9.2 mph - N/A   Scattered Clouds
10:53 AM 43.0 °F 36.4 °F 26.1 °F 51% 29.81 in 10.0 mi WNW 12.7 mph 21.9 mph N/A   Partly Cloudy
11:53 AM 43.0 °F 36.0 °F 25.0 °F 49% 29.80 in 10.0 mi WNW 13.8 mph - N/A   Scattered Clouds
12:53 PM 44.1 °F 37.4 °F 24.1 °F 45% 29.81 in 10.0 mi WNW 13.8 mph 25.3 mph N/A   Scattered Clouds
1:53 PM 45.0 °F 38.5 °F 24.1 °F 44% 29.81 in 10.0 mi WNW 13.8 mph 20.7 mph N/A   Clear
2:53 PM 44.1 °F 37.7 °F 25.0 °F 47% 29.82 in 10.0 mi WNW 12.7 mph 20.7 mph N/A   Partly Cloudy
3:53 PM 43.0 °F 37.7 °F 24.1 °F 47% 29.83 in 10.0 mi WNW 9.2 mph 16.1 mph N/A   Clear
4:53 PM 41.0 °F 34.7 °F 24.1 °F 51% 29.83 in 10.0 mi WNW 10.4 mph 18.4 mph N/A   Partly Cloudy
5:53 PM 39.0 °F 33.4 °F 25.0 °F 57% 29.85 in 10.0 mi NW 8.1 mph - N/A   Clear
6:53 PM 37.9 °F 34.4 °F 25.0 °F 60% 29.94 in 10.0 mi Variable 4.6 mph - N/A   Scattered Clouds
7:53 PM 39.0 °F 35.7 °F 24.1 °F 55% 29.92 in 10.0 mi West 4.6 mph - N/A   Overcast
8:53 PM 37.9 °F 35.5 °F 23.0 °F 55% 29.92 in 10.0 mi West 3.5 mph - N/A   Partly Cloudy
9:53 PM 35.1 °F 32.2 °F 21.9 °F 59% 29.88 in 10.0 mi West 3.5 mph - N/A   Clear
10:53 PM 28.9 °F - 21.9 °F 75% 29.89 in 10.0 mi Calm Calm - N/A   Clear
11:53 PM 30.0 °F - 24.1 °F 79% 29.90 in 10.0 mi Calm Calm - N/A   Overcast